FW2543 Weather Reports


time (UTC)temp
F
wind
direction
speed
knots
gust
knots
rain 1hr
in
rain 24hr
in
rain mn
in
humidity
%
barometer
mb
20260505114204 51 255 6.1 14.8 0.00 0.10 0.06 1 1014.2
20260505113703 51 0 6.1 14.8 0.00 0.10 0.06 1 1014.0
20260505113203 51 251 7.8 14.8 0.00 0.10 0.06 1 1014.2
20260505112947 51 237 7.8 13.9 0.00 0.10 0.06 1 1014.4
20260505112451 51 251 5.2 13.9 0.00 0.10 0.06 1 1014.4
20260505111702 51 0 9.6 14.8 0.00 0.10 0.06 1 1014.3
20260505111203 51 252 7.8 14.8 0.00 0.10 0.06 1 1014.3
20260505110702 50 264 9.6 13.9 0.00 0.10 0.06 1 1014.2
20260505110203 50 268 6.1 18.2 0.00 0.10 0.06 1 1014.3
20260505102201 51 283 4.3 13.0 0.01 0.10 0.06 1 1014.3
20260505101702 51 255 5.2 13.0 0.01 0.10 0.06 1 1014.2
20260505101201 51 266 4.3 10.4 0.01 0.10 0.06 1 1014.3
20260505100700 51 0 4.3 13.0 0.01 0.10 0.06 1 1014.4
20260505100201 51 0 7.0 13.0 0.01 0.10 0.06 1 1014.5
20260505095702 51 255 4.3 11.3 0.01 0.09 0.06 1 1014.5
20260505095200 51 257 5.2 13.9 0.01 0.09 0.06 1 1014.4
20260505094944 51 258 5.2 13.9 0.01 0.09 0.06 1 1014.5
20260505094200 51 326 3.5 10.4 0.01 0.09 0.06 1 1014.5
20260505093700 51 96 3.5 12.2 0.01 0.09 0.06 1 1014.5
20260505093201 52 52 5.2 13.9 0.00 0.09 0.05 1 1014.6
20260505092700 52 209 5.2 13.9 0.01 0.09 0.05 1 1014.6
20260505092235 52 0 5.2 13.9 0.01 0.09 0.05 1 1014.8
20260505092222 52 265 7.8 13.9 0.01 0.09 0.05 1 1014.7
20260505091445 52 0 4.3 13.9 0.01 0.09 0.05 1 1015.0
20260505090659 52 343 5.2 13.9 0.02 0.09 0.05 1 1015.0
20260505090200 52 0 5.2 13.9 0.02 0.09 0.05 1 1014.9
20260505085700 52 0 5.2 11.3 0.03 0.07 0.05 1 1014.9
20260505085159 52 104 2.6 13.0 0.03 0.07 0.05 1 1015.0
20260505084700 52 271 6.1 13.0 0.04 0.07 0.05 1 1015.0
20260505084159 52 4 3.5 10.4 0.04 0.07 0.05 1 1014.9
20260505083658 51 259 2.6 13.0 0.04 0.07 0.05 1 1015.0
20260505083159 51 244 3.5 13.9 0.04 0.07 0.05 1 1015.0
20260505082658 51 233 7.0 13.9 0.03 0.07 0.04 1 1014.9
20260505082158 51 323 3.5 13.9 0.03 0.07 0.04 1 1014.9
20260505081658 51 47 3.5 14.8 0.04 0.07 0.04 1 1015.0
20260505081158 51 278 7.8 14.8 0.04 0.07 0.04 1 1015.1
20260505080659 51 151 5.2 12.2 0.03 0.07 0.03 1 1015.1
20260505080229 51 288 6.1 12.2 0.02 0.04 0.02 1 1015.4
20260505080217 51 11 4.3 9.6 0.03 0.07 0.03 1 1015.2
20260505075157 51 234 2.6 13.9 0.02 0.04 0.02 1 1015.4
20260505074658 51 250 6.1 13.9 0.01 0.04 0.01 1 1015.2
20260505074159 51 245 8.7 13.9 0.01 0.04 0.01 1 1015.1
20260505073658 51 243 6.1 12.2 0.01 0.04 0.01 1 1015.2
20260505073157 51 226 4.3 11.3 0.01 0.04 0.01 1 1015.3
20260505072657 51 278 3.5 12.2 0.01 0.04 0.01 1 1015.6
20260505072442 51 155 2.6 12.2 0.01 0.04 0.01 1 1015.6
20260505071658 51 290 3.5 13.0 0.00 0.04 0.00 1 1015.7
20260505071158 51 316 6.1 13.0 0.01 0.04 0.00 1 1015.6
20260505070656 51 8 4.3 13.0 0.01 0.04 0.00 1 1015.4
20260505070157 51 271 4.3 13.0 0.01 0.04 0.00 1 1015.4
20260505065658 51 0 2.6 13.0 0.01 0.03 0.04 1 1015.3
20260505065445 51 282 4.3 13.0 0.01 0.03 0.04 1 1015.3
20260505064656 51 271 3.5 12.2 0.01 0.03 0.04 1 1015.2
20260505064156 51 283 6.1 12.2 0.01 0.03 0.04 1 1015.1
20260505063656 51 276 5.2 13.9 0.02 0.03 0.04 1 1015.1
20260505063155 51 140 4.3 13.9 0.02 0.03 0.04 1 1014.9
20260505062657 51 302 5.2 16.5 0.02 0.03 0.04 1 1014.8
20260505062155 51 282 6.1 16.5 0.02 0.03 0.04 1 1015.0
20260505061655 50 272 6.1 15.6 0.02 0.03 0.04 1 1015.0
20260505061157 50 44 7.0 15.6 0.02 0.03 0.03 1 1015.0
20260505060939 50 265 5.2 17.4 0.02 0.03 0.03 1 1015.1
20260505060436 50 0 6.1 17.4 0.02 0.03 0.03 1 1015.2
20260505055656 51 118 7.0 13.9 0.02 0.01 0.03 1 1015.3
20260505055156 51 42 3.5 13.0 0.03 0.01 0.03 1 1015.2
20260505054655 51 272 4.3 15.6 0.03 0.01 0.03 1 1015.2
20260505054155 51 279 7.8 15.6 0.03 0.01 0.02 1 1015.2
20260505053655 51 299 7.0 13.9 0.02 0.01 0.02 1 1015.1
20260505053154 51 20 3.5 10.4 0.02 0.01 0.02 1 1015.2
20260505052937 52 202 3.5 12.2 0.02 0.01 0.02 1 1015.1
20260505052155 52 235 6.1 12.2 0.02 0.01 0.02 1 1015.1
20260505051939 52 268 4.3 11.3 0.02 0.01 0.02 1 1015.2
20260505051154 52 227 4.3 9.6 0.01 0.01 0.01 1 1015.2
20260505050654 52 241 3.5 9.6 0.01 0.01 0.01 1 1015.3
20260505050153 52 251 3.5 9.6 0.01 0.01 0.01 1 1015.4
20260505041153 53 18 4.3 13.9 0.00 0.00 0.00 1 1015.4
20260505040655 53 306 3.5 17.4 0.00 0.00 0.00 1 1015.3
20260505040153 53 275 7.8 18.2 0.00 0.00 0.00 1 1015.1
20260505035654 53 341 9.6 20.0 0.00 0.00 0.00 1 1015.0
20260505035154 53 151 6.1 20.0 0.00 0.00 0.00 1 1014.9
20260505034655 53 0 6.1 20.0 0.00 0.00 0.00 1 1014.8
20260505034153 53 307 8.7 20.0 0.00 0.00 0.00 1 1014.7
20260505033655 53 269 9.6 19.1 0.00 0.00 0.00 1 1014.6
20260505033154 53 0 7.8 19.1 0.00 0.00 0.00 1 1014.7
20260505032653 53 250 9.6 17.4 0.00 0.00 0.00 1 1014.6
20260505032154 53 317 7.0 15.6 0.00 0.00 0.00 1 1014.6
20260505031652 54 255 3.5 13.9 0.00 0.00 0.00 1 1014.5
20260505031153 54 240 6.1 14.8 0.00 0.00 0.00 1 1014.5
20260505030652 54 317 2.6 15.6 0.00 0.00 0.00 1 1014.4
20260505030153 54 338 7.0 15.6 0.00 0.00 0.00 1 1014.4
20260505025652 54 0 2.6 12.2 0.00 0.00 0.00 1 1014.4
20260505025230 54 268 6.1 13.0 0.00 0.00 0.00 1 1014.5
20260505025218 54 265 4.3 13.0 0.00 0.00 0.00 1 1014.5
20260505024434 54 213 3.5 13.0 0.00 0.00 0.00 1 1014.5
20260505023939 54 299 5.2 15.6 0.00 0.00 0.00 1 1014.6
20260505023151 54 0 4.3 15.6 0.00 0.00 0.00 1 1014.5
20260505022651 54 6 7.0 18.2 0.00 0.00 0.00 1 1014.4
20260505022436 54 37 6.1 18.2 0.00 0.00 0.00 1 1014.3
20260505021652 54 7 5.2 20.0 0.00 0.00 0.00 1 1014.3
20260505021436 54 241 6.1 20.0 0.00 0.00 0.00 1 1014.3
20260505020652 55 197 5.2 19.1 0.00 0.00 0.00 1 1014.3
20260505020152 55 28 5.2 13.9 0.00 0.00 0.00 1 1014.4
20260505015731 55 296 4.3 18.2 0.00 0.00 0.00 1 1014.5
20260505015717 55 272 3.5 18.2 0.00 0.00 0.00 1 1014.5
20260505014938 55 276 6.1 20.0 0.00 0.00 0.00 1 1014.6
20260505014150 55 288 7.8 20.0 0.00 0.00 0.00 1 1014.6
20260505013936 55 281 9.6 20.9 0.00 0.00 0.00 1 1014.7
20260505013433 55 303 6.1 20.9 0.00 0.00 0.00 1 1014.7
20260505012651 55 0 9.6 20.0 0.00 0.00 0.00 1 1014.8
20260505012150 55 0 10.4 20.9 0.00 0.00 0.00 1 1014.8
20260505011651 55 1 5.2 20.9 0.00 0.00 0.00 1 1014.7
20260505011150 55 0 5.2 15.6 0.00 0.00 0.00 1 1014.8
20260505010650 56 295 6.1 15.6 0.00 0.00 0.00 1 1014.9
20260505010151 56 155 5.2 18.2 0.00 0.00 0.00 1 1014.8
20260505005649 56 0 9.6 18.2 0.00 0.00 0.00 1 1014.9
20260505005149 56 0 7.0 16.5 0.00 0.00 0.00 1 1014.9
20260505004649 56 30 7.0 15.6 0.00 0.00 0.00 1 1014.9
20260505004432 56 259 5.2 18.2 0.00 0.00 0.00 1 1015.0
20260505003647 56 34 5.2 18.2 0.00 0.00 0.00 1 1015.1
20260505003150 56 316 5.2 15.6 0.00 0.00 0.00 1 1015.0
20260505002650 56 226 7.0 15.6 0.00 0.00 0.00 1 1015.1
20260505002432 56 282 6.1 15.6 0.00 0.00 0.00 1 1015.1
20260505001648 56 261 7.0 18.2 0.00 0.00 0.00 1 1015.3
20260505001148 56 248 10.4 18.2 0.00 0.00 0.00 1 1015.2
20260505000650 56 271 8.7 23.5 0.00 0.00 0.00 1 1015.2
20260505000149 56 25 11.3 23.5 0.00 0.00 0.00 1 1015.0
20260504235649 56 266 7.0 17.4 0.00 0.00 0.00 1 1015.1
20260504235147 56 357 7.0 20.0 0.00 0.00 0.00 1 1015.1
20260504234649 56 133 4.3 20.0 0.00 0.00 0.00 1 1015.0
20260504234148 56 240 7.8 23.5 0.00 0.00 0.00 1 1015.1
20260504233648 56 240 11.3 23.5 0.00 0.00 0.00 1 1014.9
20260504233149 56 0 10.4 20.0 0.00 0.00 0.00 1 1015.1
20260504232648 56 0 5.2 19.1 0.00 0.00 0.00 1 1015.0
20260504232147 56 6 5.2 19.1 0.00 0.00 0.00 1 1015.0
20260504231647 56 114 6.1 39.1 0.00 0.00 0.00 1 1015.1
20260504231146 56 230 11.3 39.1 0.00 0.00 0.00 1 1014.9
20260504230647 57 247 6.1 20.0 0.00 0.00 0.00 1 1015.2
20260504230146 57 272 7.0 20.0 0.00 0.00 0.00 1 1015.1
20260504225648 57 0 6.1 18.2 0.00 0.00 0.00 1 1015.0
20260504225147 57 326 7.0 18.2 0.00 0.00 0.00 1 1015.2
20260504224646 57 4 3.5 20.0 0.00 0.00 0.00 1 1015.3
20260504224146 57 169 12.2 20.0 0.00 0.00 0.00 1 1015.3
20260504223647 57 251 9.6 16.5 0.00 0.00 0.00 1 1015.1
20260504223147 58 254 7.0 16.5 0.00 0.00 0.00 1 1015.3
20260504222928 58 248 5.2 20.0 0.00 0.00 0.00 1 1015.3
20260504222147 58 251 8.7 20.0 0.00 0.00 0.00 1 1015.4
20260504221647 58 282 7.0 18.2 0.00 0.00 0.00 1 1015.4
20260504221145 58 24 7.8 19.1 0.00 0.00 0.00 1 1015.3
20260504220646 58 289 9.6 20.9 0.00 0.00 0.00 1 1015.6
20260504220146 58 334 11.3 20.9 0.00 0.00 0.00 1 1015.4
20260504215647 59 290 6.1 19.1 0.00 0.00 0.00 1 1015.4
20260504215145 59 255 8.7 19.1 0.00 0.00 0.00 1 1015.4
20260504214932 59 54 5.2 20.9 0.00 0.00 0.00 1 1015.4
20260504214146 59 251 6.1 20.9 0.00 0.00 0.00 1 1015.4
20260504213644 60 223 10.4 18.2 0.00 0.00 0.00 1 1015.5
20260504213144 60 186 6.1 16.5 0.00 0.00 0.00 1 1015.3
20260504212646 60 269 3.5 16.5 0.00 0.00 0.00 1 1015.4
20260504212144 60 261 5.2 14.8 0.00 0.00 0.00 1 1015.5
20260504211645 60 56 7.0 17.4 0.00 0.00 0.00 1 1015.4
20260504211427 59 269 4.3 17.4 0.00 0.00 0.00 1 1015.6
20260504210645 59 219 7.0 20.9 0.00 0.00 0.00 1 1015.5
20260504210429 60 237 12.2 20.9 0.00 0.00 0.00 1 1015.5
20260504205645 60 240 7.8 14.8 0.00 0.00 0.00 1 1015.5
20260504205144 60 313 5.2 12.2 0.00 0.00 0.00 1 1015.6
20260504204644 60 302 5.2 15.6 0.00 0.00 0.00 1 1015.5
20260504204429 59 264 10.4 16.5 0.00 0.00 0.00 1 1015.5
20260504203919 59 82 4.3 22.6 0.00 0.00 0.00 1 1015.5
20260504203145 59 240 7.0 22.6 0.00 0.00 0.00 1 1015.5
20260504202645 60 0 12.2 18.2 0.00 0.00 0.00 1 1015.5
20260504202144 61 138 3.5 17.4 0.00 0.00 0.00 1 1015.3
20260504201644 61 265 9.6 17.4 0.00 0.00 0.00 1 1015.4
20260504201144 61 250 8.7 17.4 0.00 0.00 0.00 1 1015.4
20260504200643 61 221 5.2 16.5 0.00 0.00 0.00 1 1015.4
20260504200143 61 13 6.1 15.6 0.00 0.00 0.00 1 1015.5
20260504195643 61 186 6.1 16.5 0.00 0.00 0.00 1 1015.5
20260504195142 60 336 7.0 16.5 0.00 0.00 0.00 1 1015.5
20260504194927 60 0 5.2 13.0 0.00 0.00 0.00 1 1015.5
20260504194143 60 118 2.6 17.4 0.00 0.00 0.00 1 1015.5
20260504193643 59 145 8.7 18.2 0.00 0.00 0.00 1 1015.6
20260504193142 59 283 5.2 18.2 0.00 0.00 0.00 1 1015.5
20260504192643 59 278 5.2 15.6 0.00 0.00 0.00 1 1015.5
20260504192141 59 266 4.3 15.6 0.00 0.00 0.00 1 1015.4
20260504191641 59 258 8.7 14.8 0.00 0.00 0.00 1 1015.6
20260504191141 59 307 5.2 14.8 0.00 0.00 0.00 1 1015.6
20260504190927 58 321 5.2 14.8 0.00 0.00 0.00 1 1015.6
20260504190141 59 259 7.8 13.9 0.00 0.00 0.00 1 1015.6
20260504185642 58 281 3.5 15.6 0.00 0.00 0.00 1 1015.6
20260504185143 59 268 10.4 15.6 0.00 0.00 0.00 1 1015.7
20260504184641 60 261 7.0 15.6 0.00 0.00 0.00 1 1015.6
20260504184142 60 281 7.8 13.9 0.00 0.00 0.00 1 1015.6
20260504183642 60 271 7.8 13.9 0.00 0.00 0.00 1 1015.6
20260504183141 60 96 2.6 13.9 0.00 0.00 0.00 1 1015.5
20260504182641 60 355 4.3 15.6 0.00 0.00 0.00 1 1015.5
20260504182142 59 344 5.2 15.6 0.00 0.00 0.00 1 1015.6
20260504181640 60 31 5.2 17.4 0.00 0.00 0.00 1 1015.5
20260504181140 60 258 4.3 17.4 0.00 0.00 0.00 1 1015.6
20260504180640 60 299 4.3 13.9 0.00 0.00 0.00 1 1015.6
20260504180140 60 233 4.3 14.8 0.00 0.00 0.00 1 1015.5
20260504175641 60 197 8.7 14.8 0.00 0.00 0.00 1 1015.4
20260504175139 60 345 3.5 13.0 0.00 0.00 0.00 1 1015.3
20260504174639 60 255 7.0 13.0 0.00 0.00 0.00 1 1015.4
20260504174140 60 292 2.6 10.4 0.00 0.00 0.00 1 1015.3
20260504173641 60 271 4.3 15.6 0.00 0.00 0.00 1 1015.2
20260504173139 59 197 5.2 15.6 0.00 0.00 0.00 1 1015.2
20260504172641 60 313 4.3 13.9 0.00 0.00 0.00 1 1015.1
20260504172140 59 344 6.1 13.9 0.00 0.00 0.00 1 1015.1
20260504171639 59 283 6.1 13.0 0.00 0.00 0.00 1 1015.1
20260504171139 60 271 4.3 16.5 0.00 0.00 0.00 1 1015.1
20260504170640 60 268 6.1 16.5 0.00 0.00 0.00 1 1014.9
20260504170216 59 299 3.5 12.2 0.00 0.00 0.00 1 1014.9
20260504170206 59 252 2.6 11.3 0.00 0.00 0.00 1 1014.9
20260504160425 55 243 7.0 11.3 0.00 0.00 0.00 1 1015.1
20260504151135 54 255 1.7 6.1 0.00 0.00 0.00 1 1014.8
20260504150636 54 298 1.7 4.3 0.00 0.00 0.00 1 1014.7
20260504150136 54 230 1.7 3.5 0.00 0.00 0.00 1 1014.7
20260504141134 53 0 2.6 8.7 0.00 0.00 0.00 1 1014.7
20260504140634 53 272 3.5 7.8 0.00 0.00 0.00 1 1014.6
20260504140133 53 0 3.5 6.1 0.00 0.00 0.00 1 1014.6
20260504130633 52 250 3.5 6.1 0.00 0.00 0.00 1 1014.3
20260504130131 52 272 4.3 6.1 0.00 0.00 0.00 1 1014.3
20260504120211 53 0 5.2 8.7 0.00 0.00 0.00 1 1014.0
20260504120158 53 0 1.7 8.7 0.00 0.00 0.00 1 1014.0